Content
SEND FEEDBACK

Daily
Averages
Monthly
Summary
Canada

QUEBEC CITY, QUEBEC


Home > North America > Canada > Quebec
Elevation: 239 feet     Latitude: 46 48N     Longitude: 071 23W

WEATHER
 
SELECT A DAY
Number of Records: 197,186;   Date Range: 6/30/96 - 11/27/14
 
SHARE

PRINT THIS DATA

[ ← Previous Day ]
WEATHER ALMANAC - JULY 3, 2013
[ Next Day → ]
[ °C ]   °F
Weather ElementAverageHighLow
Temperature69.4 °F79 °F (5:00 pm)60.8 °F (3:30 am)
Dewpoint58.4 °F66.2 °F (1:00 pm) (7:00 pm)
Humidity76 %94 % (4:00 am)56 % (5:00 pm)
Barometer28.23 in30.16 in (8:00 am) (7:00 pm)
Wind Speed6.5 mph15 mph (2:00 pm)
Wind Gust18.4 mph (6:00 pm)
Weather ElementAverage
Visibility12.2 mi
Wind DirectionSSW (201.6 °)

Weather ElementTotal
Precipitation---
Cooling Degree Days4.9 (Base 65)
Growing Degree Days19.9 (Base 50)
Averaged from 32 records on July 3, 2013
WEATHER CONDITIONS BREAKOUT
WIND DIRECTION BREAKOUT
WEATHER BY HOUR - JULY 3, 2013
[ °C ]   °F
Local TimeTemperatureDewpointHumidityBarometerVisibilityWind DirectionWind SpeedGust SpeedPrecipitationEventsConditions
1:00 AM64.4 °F55.4 °F73 %30.15 in10.0 miEast (80°)4.6 mphOvercast
2:00 AM64.0 °F56.0 °F69 %30.12 inENE (60°)3.5 mph
2:00 AM64.4 °F55.4 °F73 %30.14 in10.0 miNE (50°)5.8 mphOvercast
3:00 AM64.4 °F55.4 °F73 %30.14 in10.0 miENE (60°)5.8 mphOvercast
3:30 AM60.8 °F0.0 °F8.0 miNorth (10°)6.9 mphLight Drizzle
4:00 AM60.8 °F59.0 °F94 %30.14 in10.0 miNorth (10°)4.6 mphOvercast
5:00 AM62.0 °F59.0 °F87 %30.12 inNNE (20°)1.2 mph
5:00 AM60.8 °F59.0 °F94 %30.13 in10.0 miNNE (20°)4.6 mphOvercast
6:00 AM60.8 °F59.0 °F94 %30.14 in7.0 miNorth (350°)4.6 mphLight Drizzle
6:18 AM60.8 °F0.0 °F10.0 miNorth (360°)3.5 mphOvercast
7:00 AM62.6 °F59.0 °F88 %30.14 in12.0 miNorth (360°)2.3 mphMostly Cloudy
8:00 AM64.0 °F59.0 °F79 %30.14 inNorth (350°)2.3 mph
8:00 AM62.6 °F57.2 °F82 %30.16 in12.0 miNW (320°)2.3 mphOvercast
9:00 AM66.2 °F59.0 °F78 %30.15 in12.0 miWest (270°)2.3 mphOvercast
10:00 AM68.0 °F62.6 °F83 %30.15 in15.0 miWest (280°)2.3 mphOvercast
11:00 AM71.6 °F64.4 °F78 %30.14 in15.0 miWSW (240°)8.1 mphMostly Cloudy
11:00 AM71.0 °F64.0 °F74 %30.12 inSW (220°)3.5 mph
12:00 PM73.4 °F64.4 °F73 %30.14 in15.0 miSSW (210°)9.2 mphMostly Cloudy
1:00 PM75.2 °F66.2 °F73 %30.14 in15.0 miSSW (210°)10.4 mphMostly Cloudy
2:00 PM75.0 °F65.0 °F65 %30.10 inSW (220°)9.2 mph
2:00 PM75.2 °F64.4 °F69 %30.12 in15.0 miSSW (210°)15.0 mphMostly Cloudy
3:00 PM77.0 °F66.2 °F69 %30.11 in15.0 miSW (220°)11.5 mphMostly Cloudy
4:00 PM78.8 °F66.2 °F65 %30.09 in15.0 miSW (220°)11.5 mphMostly Cloudy
5:00 PM78.8 °F66.2 °F65 %30.07 in15.0 miSSW (210°)10.4 mphMostly Cloudy
5:00 PM79.0 °F66.0 °F56 %30.05 inWSW (240°)6.9 mph
6:00 PM78.8 °F64.4 °F61 %30.08 in15.0 miSW (230°)12.7 mph18.4 mphMostly Cloudy
7:00 PM78.8 °F66.2 °F65 %30.07 in15.0 miWSW (240°)12.7 mphMostly Cloudy
8:00 PM75.2 °F66.2 °F73 %30.07 in15.0 miWSW (250°)8.1 mphMostly Cloudy
9:00 PM73.4 °F66.2 °F78 %30.09 in10.0 miWSW (250°)4.6 mphMostly Cloudy
10:00 PM71.6 °F66.2 °F83 %30.09 in10.0 miSW (220°)4.6 mphMostly Cloudy
11:00 PM71.0 °F66.0 °F79 %30.06 inSW (230°)4.6 mph
11:00 PM69.8 °F66.2 °F88 %30.09 in10.0 miSW (230°)8.1 mphMostly Cloudy
Hourly data recorded from CYQB, located miles away from Quebec City, Quebec







STORIES FROM OUR PARTNERS